RH
25 23 23 22 21 20 20 21 25 32 32 33 33 37 34 38 42 47 53 47 44 46 44 34 25 22 21 15 9 7 7 13 18 25 35 35 37 57 65 70 78 79 85
21 22 21 21 20 20 19 19 24 30 32 33 36 39 40 40 43 53 54 43 44 44 42 30 21 18 16 13 9 10 12 13 18 25 40 38 52 57 63 67 70 72 72
19 20 20 20 19 18 17 18 24 30 32 36 38 39 35 40 45 52 51 45 44 42 40 26 18 14 11 7 7 11 16 18 17 24 36 47 55 57 62 64 68 69 66
22 19 18 19 19 17 17 17 23 29 33 37 37 40 39 38 46 55 51 46 37 41 34 23 16 11 9 11 8 7 9 10 15 24 37 52 56 59 63 65 66 67 64
21 19 16 16 18 17 16 17 23 30 32 35 38 43 42 40 50 54 54 46 38 36 27 18 14 9 7 7 4 3 3 4 7 15 37 47 52 58 62 64 65 65 63
19 16 18 17 17 17 17 16 25 30 30 32 34 39 44 46 48 50 54 48 36 32 24 17 13 8 6 7 5 3 3 4 5 13 33 40 44 50 58 61 59 66 68
25 23 18 16 14 15 17 18 27 28 31 36 37 38 43 45 48 51 51 46 38 27 22 16 13 8 7 9 8 4 4 5 8 16 28 35 40 45 52 54 58 69 71
29 27 26 20 15 12 14 17 29 30 35 34 38 37 42 45 50 49 49 48 42 28 20 17 14 9 10 11 12 8 9 8 11 19 26 33 39 42 47 49 60 71 73
31 28 26 25 21 16 13 15 26 30 35 35 39 38 40 47 50 49 51 50 44 32 24 18 13 9 8 9 10 12 10 9 15 21 25 32 39 41 43 44 53 61 65
39 31 28 27 24 20 16 19 24 30 34 38 38 38 40 46 50 48 54 51 44 35 29 23 15 9 8 8 10 10 10 10 14 17 23 30 36 40 40 38 45 48 49
46 44 38 30 27 23 22 23 28 30 33 39 41 37 41 46 46 50 53 52 45 36 32 29 24 13 8 8 6 8 11 13 14 17 22 28 34 39 37 39 39 42 51
53 52 48 44 34 29 22 24 29 33 40 39 40 37 41 46 53 54 56 53 46 35 32 30 26 21 11 8 8 9 11 14 14 15 19 24 31 36 37 37 38 43 49
57 55 53 47 44 33 26 24 30 32 38 38 39 37 39 48 56 57 57 55 48 40 33 31 28 25 19 10 9 11 12 14 14 12 17 20 25 32 36 35 40 45 51
54 57 58 54 48 44 28 23 28 28 39 39 39 39 41 48 54 56 59 57 53 43 37 32 29 26 23 18 15 12 12 12 12 11 12 16 21 28 33 37 41 45 51
59 60 59 58 54 48 32 26 28 31 33 40 38 37 39 44 49 52 55 55 53 47 41 33 31 29 26 22 26 18 11 12 12 13 11 13 15 21 31 37 38 45 49
58 60 61 62 56 52 30 25 25 36 39 44 45 44 42 45 48 54 56 57 55 53 44 37 32 32 31 27 28 23 16 12 12 12 11 11 12 15 26 33 35 40 49
70 65 65 67 58 53 30 23 25 37 42 45 49 50 43 46 49 53 57 57 54 52 43 40 33 33 35 35 32 29 20 15 14 12 12 11 11 13 18 28 31 35 43
76 78 74 70 56 45 28 23 29 40 45 47 49 48 45 47 52 56 55 54 52 50 46 40 37 36 36 36 35 32 27 20 16 14 13 12 12 12 12 18 24 28 35
77 73 72 60 58 45 40 39 40 49 51 48 50 46 46 51 55 56 56 54 54 52 49 42 40 39 37 36 35 34 30 24 17 15 15 12 12 13 12 11 16 21 26
77 76 73 72 63 68 69 50 50 53 54 50 46 48 51 53 54 56 55 56 59 59 57 52 43 41 41 37 33 33 32 27 22 15 18 13 10 9 10 12 12 13 17
85 76 67 70 62 79 67 57 49 60 62 51 49 53 55 56 58 60 61 57 56 54 61 58 46 45 50 42 34 33 34 31 26 19 17 17 12 12 13 14 13 11 11
92 88 67 64 69 67 68 70 68 60 64 54 51 51 55 60 62 57 57 54 57 60 70 55 64 64 64 53 37 34 35 34 31 26 19 19 15 14 13 13 13 12 11
87 89 86 77 75 70 73 72 79 70 60 54 53 55 55 55 57 57 54 54 58 57 64 60 70 70 70 67 51 35 35 36 37 30 24 21 21 16 14 14 14 13 13
76 77 79 76 75 82 83 96 81 70 60 58 59 63 62 57 56 58 61 62 65 58 56 60 63 71 66 76 68 50 37 40 37 39 28 25 21 19 16 15 14 15 15
65 68 74 75 69 85 88 81 74 65 58 57 61 64 65 57 54 67 67 65 59 56 57 61 61 62 62 72 80 66 46 42 37 43 34 31 29 22 21 18 15 15 16
67 70 71 72 75 74 73 76 72 65 66 66 67 67 60 59 59 65 66 62 58 55 57 58 57 60 62 77 79 78 62 47 42 43 41 36 34 33 27 24 21 16 16